[keps] orb12005.2l.amsat

Ray Hoad ray.hoad at mypbmail.com
Thu Jan 5 19:25:15 PST 2012


SB KEPS @ AMSAT  $ORB12005.N
2Line Orbital Elements 12005.AMSAT

HR AMSAT ORBITAL ELEMENTS FOR AMATEUR SATELLITES IN NASA FORMAT
FROM WA5QGD FORT WORTH,TX January 5, 2012
Send Subscribe/unsubscribe to KEPS at http://www.amsat.org/mailman/listinfo/keps
BID: ORB12005.N

DECODE 2-LINE ELSETS WITH THE FOLLOWING KEY:
1 AAAAAU 00  0  0 BBBBB.BBBBBBBB  .CCCCCCCC  00000-0  00000-0 0  DDDZ
2 AAAAA EEE.EEEE FFF.FFFF GGGGGGG HHH.HHHH III.IIII JJ.JJJJJJJJKKKKKZ
KEY: A-CATALOGNUM B-EPOCHTIME C-DECAY D-ELSETNUM E-INCLINATION F-RAAN
G-ECCENTRICITY H-ARGPERIGEE I-MNANOM J-MNMOTION K-ORBITNUM Z-CHECKSUM

TO ALL RADIO AMATEURS BT

AO-07
1 07530U 74089B   12004.50631824 -.00000027  00000-0  10000-3 0 02749
2 07530 101.3968 008.1218 0011778 245.5522 114.4322 12.53586767699410
FO-29
1 24278U 96046B   12005.82999622  .00000028  00000-0  61205-4 0  7449
2 24278 098.5745 127.9596 0351190 092.2779 271.8595 13.52975685759860
SO-33
1 25509U 98061B   12005.83139739  .00000856  00000-0  15576-3 0  1376
2 25509 031.4325 178.0427 0353251 214.1003 143.6486 14.28644993689274
RS-22
1 27939U 03042A   12005.77852415  .00000636  00000-0  13005-3 0  9634
2 27939 097.8244 214.8543 0014598 064.5312 295.7401 14.63856883441976
VO-52
1 28650U 05017B   12004.59990454  .00001292  00000-0  16596-3 0 09923
2 28650 097.6184 043.4797 0025850 219.5760 140.3566 14.82589890360583
SO-67
1 35870U 09049F   12005.92638008  .00004435  00000-0  19443-3 0  5614
2 35870 097.2563 047.3802 0003329 049.7882 049.1456 15.22479410127763
HO-68
1 36122U 09072B   12005.79936796 -.00000044  00000-0  00000 0 0   771
2 36122 100.3882 068.2892 0007717 121.4580 238.7289 13.16292275 98897
UO-11
1 14781U 84021B   12004.87179764  .00000874  00000-0  12178-3 0 07586
2 14781 097.9794 065.6576 0008487 200.0557 160.0324 14.80264981495624
AO-16
1 20439U 90005D   12004.89050139  .00000206  00000-0  92569-4 0  3654
2 20439 098.4111 313.0369 0010221 289.4213 070.5863 14.32004189146488
LO-19
1 20442U 90005G   12004.93861509  .00000082  00000-0  46105-4 0 03000
2 20442 098.3755 316.6774 0010964 279.0268 080.9670 14.32225164146673
AO-27
1 22825U 93061C   12004.82216673  .00000079  00000-0  47994-4 0    06
2 22825 098.5555 310.3594 0009051 046.8926 313.3036 14.29418040952999
IO-26
1 22826U 93061D   12005.83405766  .00000170  00000-0  83279-4 0  7489
2 22826 098.5511 311.7674 0009695 037.5848 322.6008 14.29687943953263
GO-32
1 25397U 98043D   12005.80686525 -.00000085  00000-0 -19519-4 0  6719
2 25397 098.3449 352.7220 0002053 061.2927 298.8451 14.23249921700789
NO-44
1 26931U 01043C   12004.79396773  .00000204  00000-0  11152-3 0  9378
2 26931 067.0505 184.0147 0005331 279.8611 080.1905 14.29745869535749
SO-50
1 27607U 02058C   12004.65401617  .00000949  00000-0  16378-3 0 06575
2 27607 064.5584 075.3212 0084604 280.3201 078.8366 14.72141571485743
CO-55
1 27844U 03031E   12004.50622756  .00000268  00000-0  14379-3 0 02819
2 27844 098.7048 015.2804 0009815 342.3699 017.7139 14.20939524441503
CO-57
1 27848U 03031J   12004.55215564  .00000236  00000-0  12962-3 0  2285
2 27848 098.7130 014.5897 0009683 348.6756 011.4199 14.20702503441455
AO-51
1 28375U 04025K   12004.92195826  .00000236  00000-0  83324-4 0 01622
2 28375 098.1240 338.0554 0083068 178.0512 182.0996 14.40879820395115
CP3
1 31129U 07012N   12005.80081465  .00000773  00000-0  18668-3 0   615
2 31129 097.8871 023.1938 0100264 271.3697 087.5915 14.52835185250253
CO-65
1 32785U 08021C   12004.65607608  .00001005  00000-0  13129-3 0 01954
2 32785 097.8246 069.4604 0013680 238.1763 121.8133 14.82584704199382
PRISM
1 33493U 09002B   12005.89252308  .00003519  00000-0  43834-3 0  3029
2 33493 098.1476 142.9210 0020216 105.6124 254.7304 14.82999750159541
SOHLA-1
1 33496U 09002E   12004.91365333  .00000537  00000-0  98194-4 0 06342
2 33496 098.0925 117.9010 0006243 195.3544 164.7472 14.69832467158112
TISAT-1
1 36799U 10035E   12005.91201161  .00002068  00000-0  27111-3 0  5742
2 36799 098.0805 081.0088 0014698 345.9378 014.1402 14.81385038 80313
STUDSAT
1 36801U 10035G   12005.91381060  .00005518  00000-0  68833-3 0  3133
2 36801 098.0851 081.1429 0012840 332.2958 027.7559 14.82769223 80314
OOREOS
1 37224U 10062C   11330.25217324  .00002151  00000-0  30897-3 0 00339
2 37224 071.9741 041.3371 0020052 337.4654 022.5620 14.77385090005948
FO-69
1 37227U 0        12004.45619159  .00000593  00000-0  92009-4 0 00675
2 37227 071.9721 315.4054 0018957 266.6474 093.2532 14.76880750011773
FO-70
1 37380U 0        12004.43444673  .00000785  00000-0  11996-3 0 00702
2 37380 071.9756 315.8077 0019518 263.6784 096.2155 14.76639409011660
NOAA-10
1 16969U 86073A   12004.93795358 -.00000005  00000-0  15735-4 0 07754
2 16969 098.6001 036.7717 0012347 359.1892 000.9267 14.27517589316432
NOAA-11
1 19531U 88089A   12004.80762346 -.00000068  00000-0 -12860-4 0 07697
2 19531 098.7420 093.3725 0011050 337.3770 022.6930 14.14947434201261
NOAA-12
1 21263U 91032A   12004.94014972  .00000125  00000-0  71898-4 0 02721
2 21263 098.7405 027.2824 0013326 321.6242 038.3988 14.25469927073153
MET-3/5
1 21655U 91056A   12005.89355670  .00000051  00000-0  10000-3 0  3030
2 21655 082.5583 267.5477 0014015 015.7692 344.3810 13.17036213980402
MET-2/21
1 22782U 93055A   12005.87620363  .00000123  00000-0  98349-4 0  3027
2 22782 082.5466 162.0757 0021173 249.5933 110.2956 13.83673117926585
OKEAN-4
1 23317U 94066A   12005.88773247  .00001180  00000-0  14010-3 0  7688
2 23317 082.5390 183.8172 0021691 166.5899 193.5897 14.83506801930592
NOAA-14
1 23455U 94089A   12004.93933480  .00000073  00000-0  61754-4 0 07574
2 23455 098.8380 090.4443 0010189 067.8936 292.3313 14.13868342877587
NOAA-15
1 25338U 98030A   12004.89893955  .00000259  00000-0  12932-3 0 00890
2 25338 098.6752 353.4957 0010021 223.4241 136.6140 14.25015777709453
RESURS
1 25394U 98043A   12004.94374024  .00000059  00000-0  43225-4 0 09957
2 25394 098.3078 001.9389 0002035 026.1349 333.9935 14.24267446701020
FENGYUN1
1 25730U 99025A   12005.92860554  .00000820  00000-0  49603-3 0  5080
2 25730 098.8329 327.8982 0021276 107.5276 252.8221 14.09142155651616
OKEAN-0
1 25860U 99039A   12004.92867223  .00000665  00000-0  10850-3 0 05324
2 25860 097.9128 331.1723 0001914 058.7137 301.4259 14.74042458670371
NOAA-16
1 26536U 00055A   12004.86577434  .00000413  00000-0  24738-3 0 05725
2 26536 099.1189 044.2782 0010643 182.5685 177.5409 14.12694003581835
NOAA-17
1 27453U 02032A   12004.79059876  .00000072  00000-0  48961-4 0 05522
2 27453 098.3572 039.9919 0010779 279.8387 080.1577 14.24377830495358
NOAA-18
1 28654U 05018A   12004.76669861  .00000249  00000-0  16202-3 0 00276
2 28654 099.0243 321.6868 0013646 257.3690 102.5943 14.11586868341369
NOAA-19
1 33591U 09005A   12004.80872612  .00000450  00000-0  27284-3 0 02163
2 33591 098.8487 306.7772 0014725 124.2508 236.0047 14.11276595149827
HUBBLE
1 20580U 90037B   12003.70530029  .00001815  00000-0  12250-3 0  9174
2 20580 028.4686 146.0963 0003477 098.4410 261.6736 15.02058594989823
ISS
1 25544U 98067A   12005.98401231  .00017180  00000-0  22019-3 0  7639
2 25544 051.6421 220.8251 0023624 248.3985 253.1434 15.58958990752563
CO-58
1 28895U 05043F   12004.59303759  .00000676  00000-0  14851-3 0 00668
2 28895 097.9381 237.8819 0017271 311.3241 048.6502 14.60427769329636
FALCON
1 30776U 07006E   12005.87438044  .00003788  00000-0  25510-3 0  2537
2 30776 035.4317 193.3982 0002715 010.9574 349.1202 15.06327489265609
MAST
1 31126U 07012K   12004.96599936  .00000690  00000-0  16508-3 0 03639
2 31126 097.8805 025.6412 0093026 262.6133 096.4489 14.53995278250409
CAPE1
1 31130U 07012P   12005.54978104  .00000710  00000-0  17261-3 0  3626
2 31130 097.8877 022.6976 0100799 272.8379 086.1276 14.52718393250013
COMPASS
1 32787U 08021E   12005.65873496  .00002006  00000-0  25079-3 0  1888
2 32787 097.8252 070.5116 0014540 232.7658 127.2234 14.83357879199565
AAUSAT2
1 32788U 08021F   12005.72823773  .00002276  00000-0  28190-3 0  1796
2 32788 097.8250 070.8784 0014012 233.1459 126.8474 14.83623731199593
DO-64
1 32789U 08021G   12004.70183141  .00004053  00000-0  48449-3 0 01954
2 32789 097.8347 071.3393 0014188 235.7128 124.2721 14.84669861199466
CO-66
1 32791U 08021J   12004.84820969  .00001471  00000-0  18774-3 0 01867
2 32791 097.8276 069.5749 0014789 235.2182 124.7611 14.82885380199384
RS-30
1 32953U 08025A   12005.57660263  .00000010  00000-0  00000 0 0  4074
2 32953 082.5009 036.8820 0017766 308.0602 051.8878 12.43019456164239
TACSAT-3
1 35001U 09028A   12004.47116260  .00079615  00000-0  72147-3 0 08308
2 35001 040.4515 019.4920 0006009 229.5406 130.4897 15.66981221148420
PHARMSAT
1 35002U 09028B   12004.42047042  .00046047  00000-0  52329-3 0 07677
2 35002 040.4681 021.2838 0010560 280.6576 079.3052 15.61397965148400
HAWKSAT1
1 35003U 09028C   11276.79285837  .02274821  58283-2  19360-2 0  8114
2 35003 040.4398 174.3672 0011414 274.3918 085.3844 16.13812532134570
CP6
1 35004U 09028D   11247.64656856  .16152067  73217-5  10011-2 0  7842
2 35004 040.4403 342.9642 0002956 038.0069 322.2231 16.41039951130139
METEOR-M
1 35865U 09049A   12005.74947673 -.00000001  00000-0  19277-4 0   414
2 35865 098.6796 062.9573 0002531 148.9326 211.1997 14.21852991119373
RS-38
1 35869U 09049E   12005.93461897  .00000040  00000-0  37811-4 0   346
2 35869 098.6762 063.1586 0004698 155.4697 204.6706 14.22048168119411
ARISSAT1
1 37772U 98067CK  12004.04884568  .13494171  12416-4  77857-3 0  4794
2 37772 051.6129 213.1240 0007478 255.9283 104.1611 16.41716225 24077
JUGNU
1 37839U 11058B   12005.93060571  .00000620  00000-0  19019-3 0   626
2 37839 019.9635 267.2409 0018930 224.3163 135.5678 14.12014815 12147
SRMSAT
1 37841U 11058D   12005.90498162  .00000264  00000-0  00000 0 0   627
2 37841 019.9707 269.0773 0012160 199.3803 160.6195 14.10105714 12112
RAX-2
1 37853U 11061D   12005.90651690  .00004042  00000-0  33446-3 0   612
2 37853 101.7078 332.0065 0252358 095.8575 267.1447 14.78362744 10250
AUBIESAT
1 37854U 11061E   12005.82910208  .00004226  00000-0  34410-3 0   646
2 37854 101.7099 331.9514 0254196 095.7566 267.2674 14.78598485 10236
HRBE
1 37855U 11061F   12005.89855686  .00004011  00000-0  32747-3 0   634
2 37855 101.7109 332.0507 0254354 095.3538 267.6695 14.78541060 10249
/EX




More information about the Keps mailing list